[Date Prev][Date Next][Thread Prev][Thread Next] - [Date Index][Thread Index][Author Index]
2 Line ISS Keps 2-28
- Subject: [sarex] 2 Line ISS Keps 2-28
- From: "Dave Larsen PhD" <doc@xxxxxxxxxxx>
- Date: Mon, 27 Feb 2006 18:27:51 -0800
ISS
1 25544U 98067A 06058.92435755 .00012859 00000-0 92917-4 0 4340
2 25544 051.6431 029.5047 0008160 307.1440 102.7031 15.73882770415948
----
Via the sarex mailing list at AMSAT.ORG courtesy of AMSAT-NA.
To unsubscribe, send "unsubscribe sarex" to Majordomo@amsat.org
AMSAT Home